Flag for U.S.A. Weather past 2 weeks in Huntsville, Alabama, U.S.A.

Now
79 °F

Broken clouds.


Feels Like: 81 °F
Forecast: 69 / 85 °F
Wind: 7 mph from Southwest

Location: Huntsville International / Jones Field

Current Time: Jun 30, 2015 at 10:05:46 AM

Latest Report: Jun 30, 2015 at 8:53 AM


Visibility: 10 mi

Pressure: 29.96 "Hg

Humidity: 67%

Dew point: 67 °F

Location of HuntsvilleLocation

Historic Weather in Huntsville — Graph

°F

Huntsville temperature yesterday

Maximum temperature yesterday: 90 °F (at 2:53 PM)
Minimum temperature yesterday: 66 °F (at 5:53 AM)
Average temperature yesterday: 78 °F

Past Weeks' High & Low Weather Summary

 TemperatureHumidityPressure
High98 °F (Jun 23, 3:53 PM)90% (Jun 24, 1:53 AM)30.15 "Hg (Jun 24, 1:53 AM)
Low63 °F (Jun 28, 4:53 AM)30% (Jun 28, 2:53 PM)29.85 "Hg (Jun 27, 3:53 AM)
Average83 °F64%30.01 "Hg
* Reported Jun 15 7:53 AM — Jun 30 7:53 AM, Huntsville, Weather by CustomWeather, © 2015

Note: Actual official high and low records may vary slightly from our data, if they occured in-between our weather recording intervals... More about our weather records

Advertising

Huntsville weather history for previous 24 hours

 ConditionsComfort  
Time TempWeatherWind HumidityBarometerVisibility
7:53 AM
Tue, Jun 30
78 °FBroken clouds.3 mph74%29.94 "Hg10 mi
6:53 AM77 °FMore clouds than sun.7 mph74%29.93 "Hg10 mi
5:53 AM75 °FOvercast.7 mph79%29.92 "Hg10 mi
4:53 AM76 °FClear.10 mph77%29.92 "Hg10 mi
3:53 AM75 °FLight rain. Passing clouds.13 mph79%29.89 "Hg10 mi
2:53 AM75 °FPassing clouds.7 mph76%29.90 "Hg10 mi
1:53 AM74 °FPassing clouds.5 mph76%29.93 "Hg10 mi
12:53 AM74 °FClear.5 mph76%29.93 "Hg10 mi
11:53 PM
Mon, Jun 29
73 °FPassing clouds.5 mph79%29.94 "Hg10 mi
10:53 PM78 °FPassing clouds.3 mph62%29.93 "Hg10 mi
9:53 PM78 °FPassing clouds.3 mph62%29.90 "Hg10 mi
8:53 PM78 °FPassing clouds.6 mph64%29.89 "Hg10 mi
7:53 PM82 °FPassing clouds.6 mph56%29.88 "Hg10 mi
6:53 PM87 °FPassing clouds.12 mph43%29.88 "Hg10 mi
5:53 PM88 °FScattered clouds.12 mph45%29.89 "Hg10 mi
4:53 PM87 °FScattered clouds.10 mph45%29.89 "Hg10 mi
3:53 PM89 °FScattered clouds.14 mph45%29.90 "Hg10 mi
2:53 PM90 °FScattered clouds.13 mph42%29.92 "Hg10 mi
1:53 PM87 °FPassing clouds.8 mph46%29.93 "Hg10 mi
12:53 PM83 °FBroken clouds.8 mph55%29.95 "Hg10 mi
11:53 AM84 °FBroken clouds.8 mph51%29.96 "Hg10 mi
10:53 AM84 °FPassing clouds.14 mph49%29.98 "Hg10 mi
Weather by CustomWeather, © 2015

See weather overviewHow to use our weather pages